This is the latest recevied weather packets stored in our database for station/object KD8JAM. If no packets are shown the sender has not sent any weather packets the latest 10 day(s).
| Time | Temp. | Humidity | Pressure | Rain* | Wind** | Luminosity | Snow |
|---|---|---|---|---|---|---|---|
| 1777987794 | 1.67° C | 91% | 1004.8 hPa | 0 mm | - | 109 W/m² | - |
| 1777987491 | 1.67° C | 91% | 1004.8 hPa | 0 mm | - | 112 W/m² | - |
| 1777987189 | 1.67° C | 92% | 1004.9 hPa | 0 mm | - | 108 W/m² | - |
| 1777986885 | 1.67° C | 92% | 1004.9 hPa | 0 mm | - | 117 W/m² | - |
| 1777986584 | 1.67° C | 93% | 1004.5 hPa | 0 mm | - | 117 W/m² | - |
| 1777986281 | 1.67° C | 92% | 1005 hPa | 0 mm | - | 99 W/m² | - |
| 1777985979 | 1.67° C | 91% | 1004.9 hPa | 0 mm | - | 99 W/m² | - |
| 1777985676 | 1.67° C | 89% | 1004.7 hPa | 0 mm | - | 90 W/m² | - |
| 1777985372 | 2.22° C | 87% | 1004.5 hPa | 0 mm | - | 65 W/m² | - |
| 1777985070 | 2.22° C | 87% | 1004.5 hPa | 0 mm | - | 136 W/m² | - |
| 1777984765 | 1.67° C | 89% | 1004.4 hPa | 0 mm | - | 190 W/m² | - |
| 1777984462 | 1.67° C | 89% | 1004.5 hPa | 0 mm | - | 139 W/m² | - |
| 1777984158 | 1.11° C | 90% | 1004.2 hPa | 0 mm | - | 127 W/m² | - |
| 1777983855 | 1.11° C | 89% | 1004.3 hPa | 0 mm | - | 102 W/m² | - |
| 1777983552 | 0.56° C | 90% | 1004.1 hPa | 0 mm | - | 63 W/m² | - |
| 1777983249 | 0.56° C | 91% | 1004.4 hPa | 0 mm | - | 71 W/m² | - |
| 1777982945 | 1.11° C | 90% | 1004.2 hPa | 0 mm | - | 36 W/m² | - |
| 1777982642 | 0.56° C | 89% | 1004.1 hPa | 0 mm | - | 43 W/m² | - |
| 1777982340 | 1.11° C | 89% | 1004.1 hPa | 0 mm | - | 45 W/m² | - |
| 1777982037 | 1.11° C | 89% | 1004.1 hPa | 0 mm | - | 44 W/m² | - |
| 1777981735 | 1.11° C | 90% | 1004 hPa | 0 mm | - | 42 W/m² | - |
| 1777981431 | 1.11° C | 89% | 1003.8 hPa | 0 mm | - | 58 W/m² | - |
| 1777981128 | 1.11° C | 89% | 1003.9 hPa | 0 mm | - | 33 W/m² | - |
| 1777980824 | 0.56° C | 89% | 1003.9 hPa | 0 mm | - | 16 W/m² | - |
| 1777980520 | 0.56° C | 90% | 1003.7 hPa | 0 mm | - | 13 W/m² | - |
* Rain latest hour (hover to see other rain measurements)
** Current wind speed in m/s (hover to see current wind gust speed)